Temperature
14 15 15 15 16 16 16 15 14 15 15 15 15 15 15 16 16 16 15 15 15 15 15 15 14 14 14 14 13 13 13 13 13 13 13 13 13 13 12 12 12 12 12 12
14 15 15 15 15 16 16 16 15 15 15 15 15 15 15 15 15 15 15 15 15 15 14 14 14 14 14 13 13 13 13 13 13 13 12 12 12 12 12 12 12 12 12 12
12 14 14 14 15 15 15 15 15 15 14 14 14 14 14 15 15 15 15 15 14 14 14 14 14 14 13 13 13 13 13 13 12 12 12 12 12 12 12 12 12 12 12 11
11 13 13 14 15 15 15 14 15 14 14 14 14 14 15 15 15 14 14 14 14 14 14 14 14 14 13 13 13 13 12 12 12 12 12 12 12 12 12 11 11 11 11 11
11 12 12 14 15 15 14 14 14 14 13 14 14 14 14 15 15 14 14 14 14 14 14 14 13 13 13 13 12 12 12 12 12 12 11 11 11 11 11 11 11 11 11 11
11 12 12 13 14 15 14 13 13 13 13 13 13 11 12 14 14 14 14 14 14 14 13 13 13 13 12 12 12 12 12 12 11 11 11 11 11 11 11 11 11 10 10 10
10 11 11 13 14 15 13 13 13 14 14 13 12 12 13 13 13 13 13 13 13 13 13 13 12 12 12 12 12 12 11 11 11 11 11 11 11 10 10 10 10 10 10 10
10 11 11 13 13 13 12 14 14 14 14 14 13 13 13 13 13 13 13 13 13 12 12 12 12 12 12 11 11 11 11 11 11 10 10 10 10 10 10 10 10 10 9 9
10 11 12 13 13 14 14 13 13 13 14 13 13 12 12 12 12 12 12 12 12 12 12 12 11 11 11 11 11 10 10 10 10 10 10 10 10 10 9 9 9 9 9 9
10 10 11 12 13 13 13 13 13 13 13 13 12 12 12 12 11 11 11 11 11 11 11 11 11 11 11 10 10 10 10 10 9 9 9 9 9 9 9 9 9 9 9 9
9 10 11 12 12 13 13 13 13 13 12 12 12 12 11 11 11 11 11 11 11 11 11 11 10 10 10 10 10 9 9 9 9 9 9 9 9 9 9 9 9 8 8 8
9 10 10 11 12 12 12 12 12 12 12 11 11 11 11 11 11 10 10 10 10 10 10 10 10 10 10 9 9 9 9 9 8 9 9 8 9 9 8 8 8 8 8 8
12 12 12 12 12 12 12 12 12 11 11 11 11 11 11 10 10 10 10 10 10 10 10 10 9 9 9 9 9 9 9 8 8 8 8 8 8 8 8 8 8 7 7 7
12 11 11 11 11 11 11 11 11 11 11 11 10 10 10 10 10 10 9 9 9 9 9 9 9 9 9 9 8 8 8 8 8 8 8 8 8 8 7 7 7 7 7 7
11 11 11 11 11 11 11 10 10 10 10 10 10 10 9 9 9 9 9 9 9 9 9 9 8 8 8 8 8 8 8 7 7 7 7 7 7 7 7 7 7 7 7 7
11 11 10 10 10 10 10 10 10 10 10 9 9 9 9 9 9 9 8 8 8 8 8 8 8 8 8 7 7 7 7 7 7 7 7 7 7 7 7 6 7 6 6 6
10 10 9 9 10 10 9 9 9 9 9 9 8 8 8 8 8 8 8 8 8 7 7 7 7 7 7 7 7 7 7 6 6 6 6 6 6 6 6 6 6 6 6 6
10 10 10 9 9 9 9 9 9 9 8 8 8 8 7 7 7 7 7 7 7 7 7 7 7 6 6 6 6 6 6 6 6 6 6 6 6 6 6 6 6 5 5 5
9 9 9 9 9 9 8 8 8 8 8 8 7 7 7 7 7 7 6 6 6 6 6 6 6 6 6 6 6 6 5 5 5 5 5 5 5 5 5 5 5 5 5 5
9 9 8 8 8 8 8 8 8 7 7 7 7 7 7 7 6 6 6 6 6 5 5 5 5 5 5 5 5 5 5 5 5 5 5 5 5 5 5 5 4 4 4 4
8 8 8 8 8 7 7 7 7 7 7 7 7 7 6 6 6 6 5 5 5 5 5 5 5 5 5 5 5 5 5 5 5 4 4 4 4 4 4 4 4 4 4 4
8 8 7 7 7 7 7 7 7 7 7 6 6 6 6 6 5 5 5 5 5 5 5 4 4 4 4 4 4 4 4 4 4 4 4 4 4 3 3 3 3 3 3 3
7 7 7 7 7 7 6 6 6 6 6 6 6 6 6 5 5 5 5 5 4 4 4 4 4 4 4 4 4 4 4 4 3 3 3 3 3 3 3 3 3 3 3 3
7 7 6 6 6 6 6 6 6 6 6 6 6 5 5 5 5 5 4 4 4 4 4 4 4 3 3 3 3 3 3 3 3 3 3 3 2 2 2 2 2 2 2 2
6 6 6 6 6 6 6 6 6 5 5 5 5 5 5 4 4 4 4 4 4 4 3 3 3 3 3 3 3 3 3 3 2 2 2 2 2 2 2 2 2 2 2 2
6 6 6 6 6 6 5 5 5 5 5 4 4 4 4 4 4 3 3 3 3 3 3 3 3 2 2 2 2 2 2 2 2 2 1 1 1 1 1 1 1 1 1 1
6 5 5 5 5 5 5 5 5 4 4 4 4 4 3 3 3 3 3 3 3 3 2 2 2 2 2 2 2 1 1 1 1 1 1 1 1 1 1 1 1 1 0 0
Wind_Speed
5 4 2 3 6 5 4 7 7 6 6 6 5 5 4 4 3 3 4 4 4 4 3 3 3 3 3 3 3 3 3 3 3 3 3 3 3 3 3 3 3 4 4 3
3 3 2 5 6 6 5 5 5 4 5 4 2 2 2 3 3 4 3 3 3 3 3 4 4 3 3 2 2 3 3 3 3 2 2 2 3 3 3 3 2 3 4 4
3 4 3 5 6 4 3 3 3 5 5 1 2 2 3 4 4 4 3 3 3 3 3 4 5 5 4 4 3 3 3 3 2 2 2 3 2 2 3 3 3 3 3 3
1 1 5 6 3 3 2 2 1 3 2 3 3 3 2 3 4 3 2 2 3 3 3 3 3 3 3 2 2 3 3 2 2 2 3 3 2 3 3 3 3 3 3 3
2 3 6 5 3 1 2 2 2 1 1 1 1 3 2 1 1 3 3 3 4 4 3 3 3 3 2 2 2 2 3 3 3 3 3 3 3 3 3 3 3 3 3 4
3 3 5 5 4 2 2 2 3 1 2 1 3 1 4 4 1 0 1 1 1 1 1 2 3 3 3 2 2 2 3 3 3 3 3 4 4 3 3 3 3 3 3 3
4 5 6 5 4 1 3 5 3 1 2 2 3 5 4 2 1 0 1 1 1 1 1 3 3 4 3 3 3 3 2 1 2 2 3 3 3 2 2 3 3 3 3 2
4 4 6 3 0 3 5 3 2 2 2 2 2 2 1 1 0 0 0 1 1 2 2 2 3 3 3 3 3 2 1 1 1 2 3 2 2 1 1 2 3 3 3 2
5 6 3 1 3 3 2 2 2 2 2 2 1 1 1 1 1 1 1 1 1 2 2 2 2 4 4 4 3 1 1 1 1 2 2 3 4 4 2 2 3 3 3 3
2 4 3 3 2 2 2 3 2 2 2 3 2 2 1 1 1 2 2 1 1 1 2 3 3 4 4 4 3 2 2 2 2 2 2 2 2 4 4 4 4 4 3 3
3 4 3 3 3 2 2 1 1 1 2 3 2 2 2 1 1 2 2 2 2 2 3 4 3 3 4 3 3 3 3 3 3 3 2 2 2 3 4 5 5 6 5 4
6 6 5 5 5 2 1 1 2 2 1 1 2 2 2 2 2 3 3 3 3 3 3 3 3 3 3 3 4 4 3 3 3 3 2 2 2 1 2 3 4 6 6 5
7 6 5 5 3 2 2 3 3 3 3 2 2 2 2 2 2 2 2 2 3 3 3 3 3 3 3 3 4 5 5 4 3 3 3 3 2 3 2 2 2 4 5 5
5 3 3 3 4 3 3 3 2 2 2 2 2 2 2 2 2 2 3 3 3 2 2 2 2 3 3 3 3 3 4 4 4 4 4 3 3 3 4 3 2 2 2 4
5 5 5 4 2 2 1 1 1 1 1 1 2 2 2 3 3 4 3 2 1 1 2 1 2 3 3 3 3 3 3 3 3 3 3 3 3 3 3 4 3 3 1 1
4 3 3 3 4 3 2 2 3 4 3 2 2 3 3 3 3 3 2 2 1 2 2 1 2 3 2 2 3 3 3 4 3 3 2 2 2 3 3 3 3 3 3 3
4 4 4 4 4 4 4 4 5 5 4 3 4 3 2 2 2 2 3 3 2 3 2 1 2 2 2 1 2 2 2 3 3 2 3 3 3 3 3 3 3 3 3 3
7 7 6 5 5 5 4 3 3 3 4 3 2 2 2 2 2 3 3 2 1 1 2 2 2 1 1 1 1 2 2 2 2 2 2 2 2 3 3 3 3 3 2 2
4 4 4 4 5 4 3 3 3 3 3 2 2 2 3 3 3 2 2 1 1 2 3 3 3 1 1 2 2 1 2 2 2 2 2 2 2 2 2 3 3 3 3 2
3 3 3 3 3 3 3 3 3 3 3 3 3 2 3 3 2 2 2 2 3 4 4 3 2 2 2 2 3 1 2 2 2 2 2 2 2 2 3 3 3 3 3 3
3 3 3 3 3 3 3 3 3 4 4 3 3 4 4 3 2 2 2 3 4 3 3 3 2 2 2 3 3 1 2 2 2 2 2 2 2 2 2 2 2 3 3 3
3 3 4 3 3 3 3 3 4 4 3 3 3 3 3 3 3 2 3 4 4 3 2 2 2 2 3 3 1 1 1 2 2 2 2 2 2 2 2 2 3 3 3 3
3 3 4 4 4 4 3 3 4 4 4 4 4 4 4 4 3 3 3 3 2 3 2 2 3 4 4 2 1 1 1 2 2 2 2 2 2 2 2 2 2 2 3 3
3 3 4 4 3 2 3 4 3 3 3 4 4 4 3 2 2 3 3 4 3 2 1 2 3 4 4 1 1 1 1 1 2 2 2 2 2 2 2 2 2 2 2 2
3 3 2 2 3 4 4 3 2 2 2 1 1 2 2 2 3 3 2 2 2 1 1 2 3 4 2 1 1 1 1 1 1 2 2 2 2 2 2 2 2 2 2 2
3 2 3 4 4 3 3 2 2 2 2 1 1 2 1 1 1 1 1 2 2 1 1 1 1 2 1 1 1 1 1 1 1 1 1 2 2 2 1 1 2 2 2 1
1 1 1 1 2 2 2 3 3 3 3 3 2 2 2 1 1 1 1 1 1 1 1 1 1 1 1 1 1 1 1 0 0 0 1 1 1 1 2 2 2 1 2 1
Wind_Direction
224 244 254 277 280 276 224 199 197 218 222 236 226 211 205 183 154 137 153 159 168 173 178 172 162 164 165 176 176 169 162 175 202 210 211 203 194 192 193 187 191 186 178 183
277 278 311 295 284 273 255 226 207 203 235 248 220 167 145 159 157 153 162 167 172 181 177 178 183 184 180 190 191 171 177 200 212 204 208 209 200 189 182 183 186 172 181 186
268 293 340 279 260 253 253 257 193 204 232 226 141 159 186 184 168 170 173 175 179 189 198 196 198 194 193 199 192 174 192 211 216 214 214 221 205 185 187 186 176 177 184 180
217 12 241 246 266 214 204 281 176 157 165 160 174 191 193 172 165 181 187 188 203 208 219 214 201 195 194 190 187 187 195 216 222 217 216 213 190 186 192 180 177 183 185 183
160 214 268 285 287 267 194 276 302 159 127 135 120 60 351 318 162 184 199 203 207 208 209 200 195 192 176 175 183 192 217 227 228 216 205 198 197 202 200 182 184 184 180 175
166 201 239 247 266 271 126 272 292 150 127 108 89 68 273 293 310 202 175 188 192 190 180 193 205 181 167 187 185 213 239 242 230 216 203 201 205 206 201 187 194 186 181 182
193 220 257 262 280 19 180 235 255 206 161 148 185 217 239 257 295 290 182 180 168 166 189 213 203 180 183 194 210 223 235 240 218 208 205 197 196 202 188 182 178 180 178 190
174 206 251 279 92 181 213 224 217 188 174 173 214 237 207 171 228 346 331 189 181 189 229 232 196 177 189 215 227 220 206 213 206 205 202 181 168 179 178 177 172 178 172 182
192 216 251 248 215 238 200 210 228 205 203 152 138 215 210 233 269 278 272 255 232 201 223 245 210 181 196 226 218 191 184 219 222 201 194 183 178 178 178 181 184 195 190 200
239 262 266 282 294 298 243 222 227 203 173 142 175 218 201 253 297 302 302 279 256 216 220 237 229 206 206 216 204 182 197 234 232 201 203 212 193 183 185 191 196 199 205 208
245 265 291 294 286 276 284 221 140 171 185 173 173 198 198 213 261 278 280 278 248 221 222 234 231 222 216 203 188 193 210 226 234 219 205 213 209 207 205 210 204 200 206 205
232 230 214 249 255 238 203 238 213 186 194 196 177 193 198 221 238 251 266 274 260 244 231 232 224 228 224 201 185 189 213 225 228 216 211 210 204 243 267 232 229 221 209 205
231 234 225 246 253 251 226 229 208 184 184 194 206 187 202 231 248 254 266 274 254 237 234 229 226 233 233 215 193 195 208 219 221 211 205 209 206 199 229 299 269 241 219 212
228 218 238 247 249 251 241 231 208 194 196 187 191 213 236 232 232 245 259 264 261 248 246 237 231 244 241 218 199 207 213 222 217 210 208 210 212 209 203 207 225 248 239 220
238 215 212 219 217 231 224 191 183 217 226 240 229 228 236 233 233 242 256 274 274 264 268 263 259 268 259 233 220 223 220 219 212 207 208 211 209 202 201 206 208 208 210 222
227 215 204 208 227 237 230 211 211 225 222 232 246 253 256 249 245 249 264 258 223 240 262 263 271 270 259 239 227 225 223 230 222 199 196 203 204 200 200 201 203 201 204 206
188 210 215 221 233 240 237 235 228 223 217 219 239 249 261 278 282 275 269 260 233 232 246 258 281 286 267 244 228 222 217 224 230 206 198 204 208 208 202 195 194 201 211 205
200 204 200 202 218 228 238 241 229 218 219 229 232 236 245 239 244 258 268 276 293 308 304 296 300 295 276 275 254 226 211 215 209 202 199 201 207 203 196 191 192 198 208 199
198 201 204 209 213 211 215 227 228 227 230 223 212 227 240 241 241 247 258 271 282 281 286 293 309 315 292 283 291 230 215 220 215 209 195 192 184 187 194 192 191 196 196 192
205 201 196 203 209 208 216 223 222 229 230 215 221 237 249 248 241 234 234 246 248 249 256 272 270 276 288 290 301 244 221 211 209 208 195 183 186 196 196 194 193 196 200 202
204 207 207 211 224 232 229 224 220 231 237 219 216 225 229 236 236 224 226 263 275 275 272 283 268 265 277 294 299 254 223 207 199 196 192 193 197 201 202 205 207 209 210 211
201 204 217 223 227 244 244 232 226 231 234 229 227 228 227 242 252 248 243 246 257 268 259 250 248 284 313 316 268 244 223 196 191 191 193 193 198 207 213 216 214 217 217 216
216 218 224 227 228 234 240 235 230 224 225 227 221 218 219 226 226 224 258 265 251 266 268 251 288 316 330 342 289 267 225 194 194 199 200 201 207 210 214 222 224 221 218 219
239 237 234 232 218 213 235 249 235 224 223 222 215 210 203 214 250 251 247 266 266 270 260 277 307 327 344 349 298 273 245 210 205 207 206 205 211 216 218 219 228 235 230 227
237 240 242 215 210 222 230 233 230 227 216 221 235 236 226 214 225 251 259 251 258 272 280 299 323 339 346 313 296 280 267 247 224 205 200 205 211 216 219 221 225 231 231 230
221 228 228 221 217 218 213 199 202 213 202 216 253 258 260 267 258 251 242 235 231 255 269 278 294 318 325 316 303 287 270 281 297 276 217 213 210 211 218 226 232 230 231 232
230 237 234 240 242 211 196 189 194 205 201 199 220 238 234 231 228 239 238 225 221 232 243 258 272 287 313 319 309 295 290 279 265 258 247 239 225 223 223 229 230 219 215 222
Height
1498 1495 1494 1493 1491 1489 1491 1494 1500 1497 1494 1489 1486 1485 1485 1484 1485 1485 1485 1486 1486 1487 1487 1488 1489 1490 1491 1492 1492 1493 1494 1494 1495 1495 1496 1497 1497 1498 1498 1499 1500 1501 1502 1502
1497 1493 1492 1492 1489 1487 1487 1486 1488 1488 1489 1484 1484 1484 1484 1484 1484 1484 1484 1485 1486 1486 1486 1487 1487 1488 1489 1490 1490 1491 1491 1492 1492 1492 1493 1493 1494 1494 1495 1496 1496 1498 1498 1499
1505 1496 1494 1498 1489 1486 1486 1484 1483 1488 1487 1483 1483 1483 1483 1483 1483 1483 1483 1484 1484 1485 1485 1485 1486 1486 1487 1488 1488 1489 1489 1489 1490 1490 1490 1490 1490 1491 1491 1492 1493 1494 1495 1495
1505 1501 1505 1494 1483 1482 1484 1483 1480 1480 1481 1481 1481 1481 1481 1481 1482 1482 1482 1482 1482 1483 1483 1483 1484 1484 1485 1486 1486 1486 1486 1487 1487 1487 1487 1487 1487 1487 1488 1489 1490 1491 1491 1492
1507 1506 1499 1489 1482 1481 1483 1484 1481 1480 1480 1480 1480 1480 1481 1481 1481 1481 1481 1481 1481 1481 1481 1481 1482 1482 1482 1483 1483 1483 1483 1483 1484 1484 1484 1484 1484 1484 1485 1486 1486 1487 1488 1489
1503 1503 1502 1489 1480 1478 1481 1486 1481 1479 1479 1479 1479 1484 1482 1480 1479 1479 1479 1479 1479 1479 1479 1479 1479 1479 1479 1479 1480 1480 1480 1480 1480 1481 1481 1481 1481 1482 1482 1483 1483 1484 1485 1486
1500 1501 1494 1483 1478 1478 1488 1487 1479 1478 1477 1478 1478 1479 1478 1477 1477 1476 1476 1476 1476 1476 1476 1476 1476 1476 1476 1476 1476 1477 1477 1477 1477 1477 1478 1478 1479 1479 1479 1480 1480 1481 1482 1482
1498 1500 1495 1479 1478 1481 1480 1477 1477 1476 1476 1476 1476 1476 1475 1475 1474 1474 1474 1474 1473 1473 1473 1473 1473 1473 1473 1473 1474 1474 1474 1473 1473 1474 1474 1475 1476 1476 1476 1477 1477 1478 1478 1479
1489 1488 1480 1477 1477 1476 1476 1475 1475 1474 1474 1474 1474 1474 1473 1473 1472 1472 1471 1471 1471 1470 1470 1470 1471 1471 1470 1471 1471 1471 1471 1470 1470 1471 1471 1472 1472 1473 1473 1474 1474 1474 1475 1475
1483 1480 1478 1476 1476 1475 1474 1473 1473 1472 1472 1472 1472 1472 1471 1471 1470 1470 1469 1468 1468 1467 1467 1467 1467 1468 1468 1468 1468 1468 1467 1468 1467 1467 1468 1468 1469 1469 1470 1470 1470 1471 1471 1472
1481 1478 1476 1475 1474 1473 1473 1472 1471 1471 1471 1470 1470 1470 1469 1469 1468 1467 1467 1466 1465 1464 1464 1464 1464 1464 1464 1465 1464 1464 1464 1464 1464 1464 1464 1465 1465 1466 1466 1467 1467 1468 1468 1468
1477 1474 1474 1473 1472 1472 1471 1470 1470 1469 1469 1468 1468 1467 1467 1466 1466 1465 1464 1463 1462 1462 1461 1461 1461 1460 1460 1461 1461 1460 1460 1460 1461 1460 1461 1461 1461 1461 1462 1463 1464 1465 1465 1465
1470 1470 1470 1469 1469 1468 1468 1468 1468 1467 1466 1466 1466 1465 1465 1464 1463 1462 1461 1460 1459 1459 1458 1458 1457 1457 1457 1457 1457 1456 1456 1457 1457 1456 1456 1457 1457 1457 1457 1459 1460 1460 1461 1461
1466 1466 1466 1466 1466 1466 1465 1465 1465 1464 1464 1463 1463 1463 1462 1461 1460 1459 1458 1458 1457 1456 1455 1454 1454 1454 1453 1453 1453 1453 1453 1453 1453 1452 1453 1453 1453 1453 1454 1454 1455 1455 1456 1457
1462 1462 1463 1462 1463 1463 1463 1462 1462 1461 1461 1461 1460 1460 1459 1458 1457 1456 1456 1455 1454 1453 1452 1451 1450 1450 1450 1449 1449 1448 1448 1448 1448 1448 1448 1449 1449 1449 1450 1450 1451 1451 1452 1453
1458 1459 1459 1459 1459 1459 1459 1459 1459 1458 1458 1458 1457 1457 1456 1455 1454 1453 1453 1452 1451 1449 1448 1448 1447 1446 1446 1446 1445 1444 1444 1444 1444 1444 1444 1445 1445 1445 1446 1446 1447 1447 1448 1448
1455 1454 1455 1455 1456 1456 1456 1456 1455 1455 1455 1454 1454 1454 1453 1452 1451 1450 1450 1449 1448 1447 1446 1444 1443 1443 1442 1442 1441 1441 1440 1440 1440 1440 1440 1441 1441 1441 1442 1442 1443 1443 1444 1444
1450 1451 1452 1452 1452 1452 1452 1452 1452 1452 1451 1451 1451 1450 1450 1449 1448 1447 1447 1446 1444 1443 1442 1441 1440 1440 1439 1438 1437 1437 1436 1436 1436 1436 1436 1436 1437 1438 1438 1438 1439 1439 1440 1441
1447 1447 1448 1449 1449 1449 1449 1449 1449 1448 1448 1448 1448 1447 1446 1446 1445 1444 1444 1442 1441 1440 1439 1438 1437 1436 1435 1435 1434 1433 1433 1432 1432 1432 1432 1433 1433 1434 1434 1435 1435 1436 1436 1437
1444 1444 1445 1445 1445 1446 1446 1445 1446 1446 1445 1445 1445 1444 1443 1443 1442 1441 1440 1439 1438 1437 1436 1435 1434 1433 1432 1431 1430 1429 1429 1428 1428 1428 1429 1429 1429 1429 1430 1431 1431 1432 1432 1433
1441 1441 1442 1442 1442 1442 1442 1442 1442 1442 1442 1442 1441 1441 1440 1440 1439 1438 1437 1436 1435 1435 1434 1432 1431 1430 1429 1428 1427 1426 1425 1424 1424 1425 1425 1425 1425 1426 1426 1427 1427 1428 1428 1429
1438 1438 1439 1439 1439 1439 1439 1439 1439 1439 1439 1438 1438 1438 1437 1436 1436 1435 1434 1434 1432 1432 1431 1429 1428 1427 1426 1425 1423 1422 1422 1421 1421 1422 1422 1422 1422 1422 1423 1423 1424 1424 1425 1425
1435 1435 1435 1435 1435 1435 1435 1435 1435 1435 1435 1435 1435 1434 1434 1433 1433 1432 1431 1431 1430 1429 1428 1426 1425 1424 1423 1421 1420 1419 1418 1418 1418 1418 1419 1419 1419 1419 1420 1420 1420 1420 1421 1421
1432 1432 1431 1431 1432 1431 1431 1431 1431 1431 1431 1431 1431 1431 1431 1430 1429 1429 1428 1427 1427 1426 1425 1423 1422 1421 1420 1418 1417 1416 1415 1415 1415 1415 1416 1416 1416 1416 1416 1416 1416 1416 1416 1417
1428 1428 1428 1428 1427 1427 1428 1428 1428 1428 1428 1428 1428 1428 1427 1427 1426 1425 1425 1424 1423 1423 1422 1421 1419 1418 1417 1416 1415 1414 1413 1413 1412 1413 1413 1413 1413 1413 1413 1413 1412 1412 1412 1412
1425 1424 1424 1424 1424 1424 1424 1424 1424 1424 1424 1424 1424 1424 1424 1423 1423 1422 1421 1421 1420 1419 1419 1418 1417 1416 1414 1413 1413 1412 1411 1410 1409 1409 1409 1409 1409 1409 1409 1409 1409 1409 1409 1409
1421 1421 1421 1421 1421 1421 1421 1421 1421 1420 1420 1420 1421 1421 1420 1420 1420 1419 1418 1418 1417 1416 1416 1415 1414 1413 1412 1411 1410 1409 1408 1407 1407 1407 1406 1406 1406 1406 1406 1406 1406 1406 1405 1405